[[{"header":{"parameterUnit":"m.s-1","parameterCategory":1,"la1":30.2991,"la2":30.254,"lo1":-89.0895,"lo2":-89.0444,"dy":0.0017,"dx":0.0017,"nx":28,"ny":28,"refTime":"2025-01-13T09:00:00:Z","depth":0,"parameterNumber":2,"parameterNumberName":"U-component_of_WINDS"},"data":[0,0,0,0,0,0,0,0,0,0,0,0,0,0,0,0,0,0,0,0,0,0,0,0,0,0,0,0,0,0,0,0,0,0,0,0,0,0,0,0,0,0,0,0,0,0,0,0,0,0,0,0,0,0,0,0,0,0,-0.8367,-0.8368,0,-0.8461,-0.8462,-0.8463,-0.8445,-0.8444,-0.8442,-0.844,-0.854,-0.8544,-0.8548,0,0,0,0,0,0,0,0,0,0,0,0,0,-0.8175,-0.8179,-0.8367,-0.8368,-0.8369,-0.8461,-0.8462,-0.8463,-0.8446,-0.8443,-0.8441,-0.8439,-0.8539,-0.8544,-0.8549,0,0,0,0,0,0,0,0,0,0,0,0,0,-0.8263,-0.818,-0.8366,-0.8371,-0.8372,-0.846,-0.8462,-0.8464,-0.8446,-0.8443,-0.8441,-0.8438,-0.8537,-0.8543,-0.8549,-0.864,0,0,-0.8569,-0.8572,0,0,0,0,0,0,0,0,-0.8258,-0.827,-0.8369,-0.8371,-0.8373,-0.8439,-0.8431,-0.8523,-0.8447,-0.8418,-0.844,-0.8437,-0.8509,-0.8517,-0.854,-0.8644,-0.8649,-0.8569,-0.8573,-0.8576,-0.8578,0,0,0,0,0,0,0,-0.8252,-0.8266,-0.8404,-0.8371,-0.8373,-0.837,-0.8379,-0.8448,-0.8477,-0.842,-0.8419,-0.8431,-0.8509,-0.8534,-0.8543,-0.865,-0.8569,-0.8575,-0.8579,-0.8581,-0.8834,-0.8837,0,0,0,0,0,0,-0.8244,-0.8261,-0.8401,-0.8407,-0.8308,-0.8375,-0.8386,-0.842,-0.8476,-0.8482,-0.8433,-0.8429,-0.8525,-0.8535,-0.8546,-0.8657,-0.8576,-0.8582,-0.8586,-0.8831,-0.8835,-0.8838,0,0,0,0,0,0,-0.8239,-0.8256,-0.8397,-0.8333,-0.8351,-0.8381,-0.842,-0.8423,-0.8449,-0.8485,-0.849,-0.8453,-0.8523,-0.8537,-0.8617,-0.8661,-0.8585,-0.8591,-0.8828,-0.8832,-0.8836,-0.8879,0,0,0,0,0,0,-0.8234,-0.8255,-0.8289,-0.8334,-0.8355,-0.8466,-0.8422,-0.8427,-0.8459,-0.8456,-0.8506,-0.8512,-0.8522,-0.8607,-0.8623,-0.8668,-0.8596,-0.8824,-0.883,-0.8835,-0.8874,-0.8885,-0.8894,0,0,0,0,0,-0.8227,-0.8298,-0.8291,-0.8308,-0.8397,-0.8468,-0.848,-0.849,-0.8463,-0.8498,-0.8521,-0.851,-0.8652,-0.8616,-0.8633,-0.8681,-0.8822,-0.8828,-0.8835,-0.887,-0.8883,-0.8893,0,0,0,0,0,0,-0.8258,-0.8304,-0.8297,-0.8383,-0.8422,-0.8465,-0.851,-0.8503,-0.8551,-0.8546,-0.8557,-0.8568,-0.8649,-0.8672,-0.8631,-0.8771,-0.8733,-0.8744,-0.8754,-0.8767,-0.8776,-0.877,-0.8601,0,0,0,0,0,-0.8274,-0.8327,-0.8364,-0.8437,-0.8457,-0.848,-0.8511,-0.8515,-0.8556,-0.8572,-0.8602,-0.8643,-0.8697,-0.8732,-0.8784,-0.8876,-0.8888,-0.8917,-0.8927,-0.8935,-0.8945,-0.8997,-0.9012,-0.886,-0.8859,-0.8859,0,0,-0.831,-0.8341,-0.8374,-0.8444,-0.8475,-0.853,-0.8494,-0.8554,-0.8596,-0.8582,-0.8659,-0.8682,-0.8728,-0.8815,-0.8855,-0.8837,-0.8989,-0.8943,-0.8949,-0.8955,-0.9006,-0.902,-0.9033,-0.8864,-0.8863,-0.8862,0,0,-0.8404,-0.8431,-0.8496,-0.8527,-0.8573,-0.8588,-0.8603,-0.8647,-0.8662,-0.8739,-0.873,-0.878,-0.8872,-0.8906,-0.8936,-0.9041,-0.9033,-0.9057,-0.9109,-0.916,-0.9172,-0.9183,-0.9224,-0.9237,-0.9066,-0.9066,-0.9066,0,-0.8443,-0.8525,-0.8531,-0.8592,-0.8624,-0.8612,-0.8679,-0.8709,-0.877,-0.8793,-0.8771,-0.8887,-0.8917,-0.9013,-0.9039,-0.9062,-0.9082,-0.9054,-0.917,-0.9181,-0.9191,-0.923,-0.9244,-0.9069,-0.9069,-0.9069,-0.9068,0,-0.8572,-0.8629,-0.8676,-0.8734,-0.8771,-0.8835,-0.8852,-0.8888,-0.8888,-0.8906,-0.8985,-0.9021,-0.908,-0.9102,-0.9103,-0.9199,-0.9186,-0.9167,-0.9129,-0.9208,-0.9245,-0.9259,-0.9073,-0.9072,-0.9071,-0.9071,0,0,-0.869,-0.875,-0.8768,-0.8795,-0.8844,-0.8889,-0.8952,-0.9009,-0.9041,-0.9082,-0.9138,-0.9215,-0.9198,-0.9231,-0.9236,-0.928,-0.9365,-0.9256,-0.9257,-0.9277,-0.9474,-0.9491,-0.9508,-0.9358,-0.9361,-0.9363,-0.9471,0,-0.8791,-0.8902,-0.8909,-0.9011,-0.9065,-0.9053,-0.9109,-0.9145,-0.9163,-0.9212,-0.9231,-0.9287,-0.9258,-0.9279,-0.9322,-0.9345,-0.9405,-0.9337,-0.9412,-0.9414,-0.9404,-0.9527,-0.9545,-0.9645,-0.9485,-0.9488,-0.949,0,-0.8924,-0.897,-0.9076,-0.9118,-0.9141,-0.9191,-0.9244,-0.929,-0.9332,-0.9341,-0.9378,-0.9376,-0.9442,-0.9399,-0.9492,-0.9446,-0.9476,-0.9492,-0.9496,-0.9507,-0.9459,-0.9544,-0.9678,-0.9694,-0.9512,-0.951,-0.9508,0,-0.9004,-0.9091,-0.9167,-0.9189,-0.924,-0.9275,-0.9298,-0.9337,-0.9371,-0.9417,-0.944,-0.9493,-0.9523,-0.9565,-0.9578,-0.9545,-0.9671,-0.9629,-0.9683,-0.9683,-0.9714,-0.9712,-0.9858,-0.9727,-0.9727,-0.9727,-0.9726,0,-0.9118,-0.9185,-0.9203,-0.925,-0.9325,-0.9332,-0.9405,-0.9426,-0.946,-0.9512,-0.9504,-0.9553,-0.9566,-0.9617,-0.9628,-0.9704,-0.9717,-0.9728,-0.9731,-0.9731,-0.973,-0.9754,-0.9749,-0.9731,-0.973,-0.9729,-0.9728,0,-0.9222,-0.9236,-0.9318,-0.9358,-0.937,-0.9424,-0.9459,-0.9504,-0.9519,-0.9585,-0.9601,-0.9625,-0.9686,-0.9702,-0.9773,-0.978,-0.9872,-0.9866,-0.9858,-0.9859,-0.9914,-0.991,-1.0083,-1.0107,-0.9957,-0.9958,-0.996,0,-0.9295,-0.9346,-0.9391,-0.9425,-0.9449,-0.9503,-0.9537,-0.9545,-0.9582,-0.9633,-0.9673,-0.9731,-0.978,-0.9876,-0.9902,-0.9957,-0.9955,-1.0011,-0.9963,-0.9962,-0.9959,-0.9958,-0.9964,-1.0022,-1.0023,-1.0025,-1.0026,0,-0.9425,-0.943,-0.9479,-0.9532,-0.9573,-0.9614,-0.9654,-0.9682,-0.9696,-0.9738,-0.9798,-0.9835,-0.9908,-0.9968,-1.0024,-1.0048,-1.0041,-1.004,-1.0056,-1.0059,-1.0053,-1.006,-0.9887,-1.0037,-1.0036,-1.0035,-1.0034,-1.0034,-0.9519,-0.9564,-0.9603,-0.9658,-0.9689,-0.9726,-0.9772,-0.9792,-0.9842,-0.9903,-0.9904,-0.9971,-1.0011,-1.0085,-1.0112,-1.0165,-1.0149,-1.0171,-1.0178,-1.0184,-1.019,-1.0041,-1.0175,-1.0175,-1.0175,-1.0174,-1.0174,0,-0.9651,-0.9675,-0.9726,-0.9782,-0.9826,-0.9812,-0.9855,-0.9894,-0.9952,-0.999,-1.0037,-1.0107,-1.0165,-1.0193,-1.0251,-1.0288,-1.0286,-1.0303,-1.0302,-1.0308,-1.0201,-1.0182,-1.0304,-1.0304,-1.0304,-1.0304,-1.0303,-1.0303,-0.9726,-0.9802,-0.9811,-0.9903,-0.9927,-0.9992,-1.0018,-1.0053,-1.0083,-1.0162,-1.021,-1.0227,-1.0262,-1.0321,-1.0374,-1.0381,-1.0404,-1.0424,-1.0429,-1.0329,-1.0316,-1.0303,-1.0287,-1.0428,-1.0428,-1.0533,-1.0534,-1.0535]},{"header":{"parameterUnit":"m.s-1","parameterCategory":1,"la1":30.2991,"la2":30.254,"lo1":-89.0895,"lo2":-89.0444,"dy":0.0017,"dx":0.0017,"nx":28,"ny":28,"refTime":"2025-01-13T09:00:00:Z","depth":0,"parameterNumber":3,"parameterNumberName":"V-component_of_WINDS"},"data":[0,0,0,0,0,0,0,0,0,0,0,0,0,0,0,0,0,0,0,0,0,0,0,0,0,0,0,0,0,0,0,0,0,0,0,0,0,0,0,0,0,0,0,0,0,0,0,0,0,0,0,0,0,0,0,0,0,0,-4.6309,-4.6311,0,-4.6516,-4.6518,-4.6521,-4.6508,-4.6505,-4.6502,-4.6499,-4.6714,-4.6722,-4.673,0,0,0,0,0,0,0,0,0,0,0,0,0,-4.5906,-4.5914,-4.6309,-4.6311,-4.6314,-4.6515,-4.6518,-4.6521,-4.6509,-4.6505,-4.6501,-4.6498,-4.6711,-4.6721,-4.6731,0,0,0,0,0,0,0,0,0,0,0,0,0,-4.6094,-4.5916,-4.6308,-4.6332,-4.6336,-4.6515,-4.6518,-4.6522,-4.651,-4.6505,-4.65,-4.6496,-4.6708,-4.672,-4.6733,-4.6902,0,0,-4.6772,-4.6777,0,0,0,0,0,0,0,0,-4.6083,-4.6109,-4.6326,-4.6331,-4.6336,-4.6481,-4.6455,-4.6649,-4.6511,-4.6444,-4.6499,-4.6494,-4.664,-4.6658,-4.6707,-4.6912,-4.6921,-4.6773,-4.678,-4.6786,-4.679,0,0,0,0,0,0,0,-4.607,-4.61,-4.6391,-4.6329,-4.6335,-4.6333,-4.6355,-4.6492,-4.6565,-4.6449,-4.6449,-4.6473,-4.6642,-4.6695,-4.6712,-4.6924,-4.6772,-4.6784,-4.6792,-4.6797,-4.728,-4.7285,0,0,0,0,0,0,-4.6052,-4.6089,-4.6384,-4.6397,-4.6196,-4.6344,-4.6368,-4.6439,-4.6563,-4.6578,-4.6477,-4.6472,-4.6675,-4.6697,-4.672,-4.6928,-4.6786,-4.6798,-4.6805,-4.7275,-4.7281,-4.7287,0,0,0,0,0,0,-4.6043,-4.6078,-4.6376,-4.6243,-4.6281,-4.6356,-4.6436,-4.6446,-4.6499,-4.6584,-4.6598,-4.6517,-4.6673,-4.6702,-4.6857,-4.6935,-4.6804,-4.6815,-4.7269,-4.7277,-4.7284,-4.7345,0,0,0,0,0,0,-4.6032,-4.6075,-4.614,-4.6245,-4.6288,-4.651,-4.644,-4.6453,-4.652,-4.6516,-4.6626,-4.664,-4.6671,-4.6838,-4.687,-4.695,-4.6825,-4.7262,-4.7272,-4.7282,-4.7336,-4.7354,-4.7369,0,0,0,0,0,-4.6017,-4.6149,-4.6143,-4.6179,-4.637,-4.6514,-4.6539,-4.6572,-4.6527,-4.6593,-4.6648,-4.6636,-4.692,-4.6854,-4.689,-4.6975,-4.7258,-4.727,-4.7281,-4.7329,-4.7351,-4.7368,0,0,0,0,0,0,-4.6053,-4.6163,-4.6158,-4.6327,-4.6411,-4.6512,-4.6596,-4.6593,-4.6693,-4.6684,-4.6721,-4.6746,-4.6903,-4.6954,-4.6878,-4.7146,-4.7083,-4.7103,-4.7108,-4.7129,-4.7145,-4.7131,-4.6836,0,0,0,0,0,-4.608,-4.6186,-4.6277,-4.6418,-4.646,-4.6521,-4.6585,-4.6603,-4.6692,-4.6728,-4.6794,-4.6881,-4.6991,-4.7062,-4.7167,-4.7342,-4.7367,-4.7419,-4.7435,-4.7448,-4.7465,-4.7564,-4.7589,-4.7325,-4.7325,-4.7325,0,0,-4.6138,-4.6211,-4.6277,-4.6427,-4.6494,-4.6605,-4.6551,-4.667,-4.6754,-4.6746,-4.6897,-4.6949,-4.7049,-4.7215,-4.7292,-4.7263,-4.7543,-4.7463,-4.7472,-4.7483,-4.7578,-4.7603,-4.7625,-4.7333,-4.7332,-4.733,0,0,-4.6301,-4.6366,-4.6492,-4.656,-4.6662,-4.6701,-4.6731,-4.6832,-4.6866,-4.7018,-4.7015,-4.7114,-4.7301,-4.7373,-4.7434,-4.7623,-4.7617,-4.7656,-4.7742,-4.7838,-4.7858,-4.7877,-4.7947,-4.7972,-4.7672,-4.7672,-4.7672,0,-4.6362,-4.6528,-4.6557,-4.6678,-4.6745,-4.6741,-4.6869,-4.6934,-4.7065,-4.7112,-4.7077,-4.7312,-4.7379,-4.7563,-4.7609,-4.7658,-4.7695,-4.7645,-4.7853,-4.7872,-4.789,-4.7957,-4.7983,-4.7677,-4.7676,-4.7676,-4.7675,0,-4.6597,-4.6713,-4.6801,-4.6928,-4.7005,-4.7128,-4.7178,-4.7252,-4.7262,-4.7305,-4.7461,-4.754,-4.7662,-4.7706,-4.7718,-4.7893,-4.7872,-4.7844,-4.7782,-4.7919,-4.7983,-4.8009,-4.7683,-4.7681,-4.768,-4.7679,0,0,-4.6792,-4.6932,-4.6964,-4.7022,-4.7134,-4.7224,-4.7347,-4.7466,-4.753,-4.762,-4.7726,-4.7883,-4.7859,-4.7928,-4.7947,-4.803,-4.8178,-4.7993,-4.7996,-4.8027,-4.8379,-4.8401,-4.8431,-4.8173,-4.8178,-4.8182,-4.8371,0,-4.6969,-4.7188,-4.7218,-4.7412,-4.752,-4.7517,-4.7625,-4.7705,-4.7749,-4.7847,-4.7894,-4.8007,-4.7964,-4.8006,-4.8088,-4.8143,-4.825,-4.8129,-4.8274,-4.8279,-4.8253,-4.8464,-4.8488,-4.8663,-4.8396,-4.84,-4.8403,0,-4.7206,-4.7302,-4.7507,-4.7604,-4.7651,-4.7747,-4.7858,-4.7952,-4.8043,-4.8069,-4.8145,-4.8154,-4.8283,-4.8213,-4.8392,-4.831,-4.837,-4.8406,-4.8413,-4.8431,-4.8352,-4.849,-4.8719,-4.8747,-4.8442,-4.8439,-4.8437,0,-4.7331,-4.7511,-4.7658,-4.7707,-4.7823,-4.7891,-4.7943,-4.803,-4.8099,-4.8196,-4.8242,-4.8352,-4.8414,-4.85,-4.8539,-4.8483,-4.8716,-4.8649,-4.8743,-4.8743,-4.8796,-4.8793,-4.9041,-4.8829,-4.8828,-4.8828,-4.8827,0,-4.7528,-4.7655,-4.7716,-4.7806,-4.7948,-4.798,-4.812,-4.8169,-4.8246,-4.8347,-4.835,-4.8445,-4.8489,-4.859,-4.8621,-4.8766,-4.8793,-4.8819,-4.8826,-4.8821,-4.8818,-4.8864,-4.8854,-4.8835,-4.8833,-4.8832,-4.8831,0,-4.7694,-4.774,-4.7899,-4.7996,-4.8023,-4.8123,-4.8206,-4.8295,-4.8335,-4.8463,-4.8495,-4.856,-4.868,-4.8726,-4.8872,-4.8893,-4.9062,-4.9057,-4.9031,-4.9034,-4.9127,-4.9119,-4.9417,-4.9459,-4.9215,-4.9217,-4.9219,0,-4.7819,-4.7916,-4.8022,-4.8089,-4.8143,-4.8251,-4.8322,-4.8357,-4.843,-4.8541,-4.8617,-4.8736,-4.8833,-4.9025,-4.9086,-4.9198,-4.9199,-4.9295,-4.9216,-4.9208,-4.9204,-4.9199,-4.921,-4.9311,-4.9314,-4.9316,-4.9317,0,-4.8036,-4.8053,-4.8154,-4.8264,-4.8348,-4.8436,-4.8521,-4.8576,-4.8624,-4.8707,-4.8829,-4.8905,-4.9054,-4.9173,-4.9288,-4.9341,-4.9339,-4.9341,-4.937,-4.9367,-4.9349,-4.9363,-4.9075,-4.9335,-4.9333,-4.9332,-4.9331,-4.933,-4.8188,-4.8274,-4.8362,-4.8475,-4.8543,-4.8623,-4.8711,-4.8762,-4.8864,-4.8988,-4.9002,-4.9134,-4.9223,-4.9377,-4.9435,-4.954,-4.9514,-4.9555,-4.9566,-4.9576,-4.9584,-4.9329,-4.956,-4.956,-4.9559,-4.9559,-4.9559,0,-4.8408,-4.8464,-4.8567,-4.8686,-4.8775,-4.8762,-4.8856,-4.8932,-4.9047,-4.913,-4.9225,-4.9366,-4.9481,-4.955,-4.9666,-4.9736,-4.9738,-4.9766,-4.9763,-4.9776,-4.9599,-4.9564,-4.9763,-4.9763,-4.9763,-4.9763,-4.9763,-4.9763,-4.8533,-4.868,-4.8707,-4.8888,-4.8943,-4.9072,-4.9127,-4.9201,-4.9267,-4.9424,-4.9519,-4.9563,-4.9641,-4.9762,-4.9867,-4.9885,-4.9929,-4.996,-4.9975,-4.9809,-4.9788,-4.9768,-4.9736,-4.9968,-4.9968,-5.0145,-5.0146,-5.0147]}]]